Theta_e
309 310 310 310 310 310 310 310 311 311 311 311 311 311 311 311 311 310 310 310 310 310 310 310 310 311 311 310 309 307 306 309 312 313 316 315 310 314 314 314 316 313 312 312 310 310 313 314 315 315 316 316 316 314 314 314 315 314 317 316 315 315 315 314 316 316 315 316 318 318 320 319 318 319 319 319 322 321 322 339 345 343 343 344 344 344 342 342
309 309 310 310 310 310 310 310 311 311 311 311 311 311 311 311 311 311 311 311 311 310 311 310 310 310 310 309 307 306 309 313 315 316 317 309 309 315 315 316 316 313 312 311 309 310 313 315 315 315 315 315 314 314 314 314 315 314 316 317 315 316 315 315 315 315 316 316 317 318 318 318 318 318 318 317 321 319 323 343 348 346 346 346 344 344 342 341
309 309 309 309 310 310 310 310 310 311 310 311 311 311 311 311 311 311 311 311 311 311 311 310 311 310 308 306 305 307 311 315 318 320 317 309 310 314 317 317 315 312 311 309 308 310 312 315 316 314 314 314 314 314 314 313 315 314 315 317 316 316 315 315 315 315 316 317 316 316 316 317 318 317 319 317 319 318 321 342 353 349 347 347 345 345 342 340
309 309 308 309 310 310 310 310 310 310 310 310 311 311 311 311 311 311 311 311 311 311 310 310 311 309 307 304 305 309 313 318 323 321 319 316 313 314 317 316 315 313 310 307 308 309 311 313 315 314 313 313 313 313 313 313 314 314 315 315 316 315 315 315 314 315 316 316 315 316 316 316 317 316 318 317 319 318 316 336 352 351 348 349 348 345 342 340
308 308 308 309 310 310 309 309 310 310 310 310 310 310 311 311 311 311 312 311 311 311 311 311 309 308 305 304 306 310 315 324 323 319 318 318 316 315 316 314 313 311 307 307 308 309 311 313 315 315 314 313 313 313 312 313 313 314 315 315 316 315 314 314 314 316 316 316 316 315 316 315 317 316 317 318 317 317 323 336 347 349 349 350 349 345 342 341
308 308 308 309 309 309 309 309 309 309 310 310 310 310 310 310 311 311 311 311 311 311 310 310 308 305 304 304 308 312 319 326 321 317 317 315 316 315 313 311 310 309 307 307 308 311 313 314 315 314 313 312 312 312 312 314 314 314 314 314 316 314 314 315 315 316 315 316 316 315 316 314 316 315 316 318 315 323 337 345 346 348 350 349 349 346 343 343
308 308 309 309 309 308 308 309 309 310 310 310 310 310 310 310 310 311 311 311 312 311 310 308 306 304 304 307 313 315 319 323 320 317 316 314 313 311 309 309 309 308 307 309 311 312 314 315 313 312 312 312 312 312 312 313 314 314 314 314 315 314 314 315 315 316 315 316 316 316 316 315 316 314 317 317 317 332 344 348 349 349 349 349 350 348 345 343
308 309 309 308 308 308 308 309 310 310 310 310 310 310 310 309 309 310 310 311 311 311 309 307 305 304 306 311 316 320 321 322 320 316 313 312 311 309 308 309 307 307 308 312 313 314 315 314 312 312 311 311 311 311 312 312 313 314 313 314 314 315 315 314 315 315 315 315 315 316 314 315 316 314 317 315 323 340 344 346 349 348 349 350 350 349 347 345
308 308 308 307 306 307 308 309 310 311 310 309 309 310 310 309 309 309 309 310 310 310 309 306 304 305 308 313 317 324 325 321 319 314 311 311 309 308 308 308 307 308 310 313 315 315 316 314 312 312 311 311 311 312 313 312 313 314 314 314 314 315 315 314 314 314 316 315 315 315 314 316 316 315 316 314 328 342 343 343 347 347 349 349 350 350 347 346
308 308 307 307 306 307 308 308 309 310 309 307 307 308 308 307 307 308 309 310 309 309 309 306 303 306 311 314 319 326 323 315 317 313 311 311 307 307 308 309 309 311 313 314 315 315 316 315 313 313 312 312 313 312 313 313 313 314 314 315 314 314 314 314 314 314 315 315 315 314 314 316 315 315 315 315 330 340 341 342 344 346 348 348 347 347 346 345
308 308 307 306 306 308 307 306 305 307 307 307 307 307 306 306 305 307 308 310 310 308 308 305 303 309 313 315 319 325 320 314 315 312 312 311 308 308 309 312 311 312 315 314 315 316 315 315 313 314 314 312 313 313 314 314 314 314 314 314 314 315 314 314 314 315 314 314 315 315 315 315 314 315 314 319 332 337 338 339 340 343 347 347 345 345 345 343
308 308 307 306 306 306 305 303 304 305 306 306 307 305 305 305 304 306 308 309 309 307 307 304 306 312 315 318 320 321 318 316 314 312 313 311 310 310 311 314 313 313 314 313 315 315 314 315 313 314 314 313 314 314 314 315 314 313 313 313 314 315 314 314 315 315 314 314 316 315 315 314 314 315 314 322 332 334 334 335 336 340 344 344 343 343 342 339
308 307 306 306 305 304 302 302 302 304 304 305 305 304 304 304 304 306 308 309 308 307 307 305 308 312 317 325 324 317 317 318 313 313 313 312 312 312 313 315 315 315 315 314 315 315 314 313 313 313 314 313 313 314 314 314 315 314 314 313 313 312 312 314 314 314 314 313 316 315 312 314 316 315 315 325 331 332 333 334 334 338 342 341 340 340 339 337
306 305 305 305 303 302 301 302 302 302 303 303 304 303 304 303 303 307 311 311 308 306 306 306 308 313 319 327 322 316 318 316 314 313 312 314 313 312 314 314 315 314 314 315 315 315 313 313 313 313 312 313 313 313 314 313 315 315 314 313 313 311 311 313 313 314 314 313 316 315 311 315 317 315 318 326 330 332 334 335 334 337 340 339 338 337 338 338
305 304 303 302 301 300 301 301 301 302 303 303 303 304 303 303 305 310 314 311 309 307 307 308 309 314 322 324 319 319 318 314 315 313 312 314 312 313 314 313 314 313 313 314 314 314 313 313 313 312 313 313 313 313 313 313 314 315 313 313 313 310 310 312 314 314 314 314 315 315 313 315 316 316 320 325 328 332 334 335 333 335 339 340 338 336 336 336
305 303 301 300 300 300 300 301 301 302 303 303 303 303 303 305 308 312 315 312 310 308 309 313 313 316 324 325 318 318 315 314 315 313 313 313 312 313 313 313 312 312 313 312 312 313 313 313 312 312 313 312 314 314 313 313 313 315 314 312 313 311 310 312 314 315 314 315 316 315 315 316 317 318 320 322 328 331 333 334 333 335 340 340 338 335 335 335
304 302 301 300 300 300 300 301 301 301 302 303 303 303 306 311 313 313 315 312 309 309 311 315 315 317 325 323 318 317 313 313 314 314 314 312 313 312 311 311 311 311 312 311 312 312 312 313 312 314 314 314 316 314 314 313 313 318 316 314 314 313 312 312 313 316 315 315 316 316 316 316 319 320 320 322 327 329 331 333 335 337 338 338 336 335 334 334
304 302 300 301 300 300 301 301 301 302 303 303 303 305 311 317 316 315 316 313 312 314 314 315 316 319 324 322 320 320 316 314 314 315 314 313 313 312 311 312 311 313 312 312 313 312 313 315 314 316 316 316 316 314 314 314 315 318 317 315 318 316 314 313 313 315 315 316 317 317 317 317 320 322 322 321 325 329 330 334 338 337 336 335 334 334 334 335
304 304 300 300 301 301 301 301 302 302 303 303 304 308 316 321 320 318 316 315 317 320 320 320 321 322 322 320 320 319 318 316 315 315 314 313 313 313 314 312 313 313 312 315 314 312 315 316 315 316 317 318 319 317 316 319 319 320 319 317 317 315 314 314 315 317 317 317 318 319 318 319 320 323 323 321 325 330 330 334 338 337 336 334 333 334 334 336
303 304 302 300 301 302 302 303 303 303 304 304 306 314 323 327 327 325 320 318 319 321 318 319 320 318 316 316 318 318 318 316 315 315 314 314 314 314 314 313 313 314 315 317 318 318 317 317 317 317 318 322 327 327 324 327 327 323 320 317 315 314 314 317 317 317 323 322 320 321 320 320 321 322 324 321 324 329 331 334 336 336 335 334 333 334 334 336
302 304 304 301 302 302 303 304 304 304 305 304 308 317 325 325 322 322 322 320 320 319 318 319 319 317 316 315 317 317 316 315 314 315 314 314 314 314 313 313 313 315 317 317 318 321 318 317 321 321 323 327 332 332 329 330 331 326 321 317 315 314 314 320 319 317 324 325 323 324 319 321 323 321 324 323 323 327 330 333 334 335 334 333 334 334 334 333
301 304 305 302 302 304 304 304 305 306 306 306 311 318 319 318 318 316 318 318 318 319 319 319 319 319 318 316 317 317 316 315 313 314 314 314 314 313 313 312 313 316 318 317 317 320 319 319 323 324 326 330 331 330 329 328 328 324 320 317 316 316 314 323 328 320 321 324 322 325 323 323 326 323 324 327 325 325 328 332 333 334 333 332 334 334 333 332
301 302 304 305 303 303 304 305 306 307 307 309 313 317 317 317 318 315 317 319 318 318 317 319 321 319 317 316 317 316 316 315 313 314 315 314 314 313 313 312 313 314 317 318 318 319 320 322 325 325 327 329 326 327 328 328 326 322 319 316 315 316 313 319 329 328 327 327 321 325 326 326 329 326 325 326 327 327 328 331 333 334 333 332 334 334 332 332
301 301 304 305 303 304 305 305 306 307 308 310 312 315 317 318 317 316 319 321 319 318 318 318 319 319 317 316 317 316 316 315 315 315 314 314 314 313 313 313 313 313 314 317 318 318 317 321 327 329 328 325 322 324 324 322 324 324 322 318 316 319 315 316 326 331 334 334 327 324 325 329 330 324 325 327 327 328 326 327 329 331 331 331 334 334 332 332
301 301 302 304 305 304 304 305 307 309 312 313 314 316 318 318 317 317 321 325 324 321 319 319 319 319 318 315 315 316 316 315 315 315 314 314 313 313 313 313 313 314 314 314 316 315 315 322 329 328 326 325 322 323 322 319 320 323 326 325 322 323 321 321 326 326 325 328 331 325 323 333 335 322 324 329 326 326 324 324 325 326 328 330 333 335 335 334
301 301 301 303 305 303 305 310 312 311 311 314 317 316 318 319 317 317 323 329 330 325 320 319 318 318 317 315 315 315 316 316 315 316 315 314 314 314 314 314 314 315 315 315 316 317 318 323 326 324 325 326 322 321 323 323 318 318 326 328 325 324 324 325 325 321 319 323 331 327 322 330 332 323 324 326 324 324 324 325 326 324 328 329 332 334 337 336
301 302 301 302 304 304 310 316 312 309 311 313 315 314 317 318 315 319 329 332 331 327 320 315 313 315 314 314 314 315 317 316 315 316 315 315 315 314 314 315 315 314 315 316 316 321 325 323 322 323 322 321 320 320 326 325 317 319 328 326 322 323 324 327 323 320 320 322 326 325 321 322 322 323 325 324 322 323 324 326 326 325 328 330 331 333 336 336
300 301 301 301 303 303 307 309 307 310 312 311 314 316 317 316 315 323 332 333 331 322 317 313 311 313 313 315 315 315 317 316 316 316 315 315 314 314 314 314 314 314 316 315 315 322 327 324 325 325 321 318 319 321 324 322 317 323 331 326 321 321 323 325 322 320 320 319 321 323 320 318 320 324 324 322 319 321 325 327 325 324 326 329 330 330 333 334
300 301 301 301 302 304 307 305 306 313 315 313 317 317 314 314 319 327 332 333 328 316 315 314 313 315 314 315 316 315 315 315 317 316 315 315 314 314 315 314 314 314 315 316 317 322 322 322 325 325 321 320 321 320 319 319 320 325 326 323 321 321 323 323 322 320 319 321 326 327 320 318 323 327 326 327 321 319 326 326 324 324 324 328 330 331 332 333
300 300 301 301 302 308 312 311 312 317 318 320 319 315 313 317 324 330 330 330 323 317 317 313 313 315 314 315 315 315 315 315 316 316 315 316 315 314 314 314 315 315 318 320 320 320 319 319 320 318 320 319 318 318 317 315 319 324 323 321 320 321 322 321 321 319 318 324 330 327 321 319 323 323 325 332 326 323 328 325 324 325 323 327 329 329 332 330
301 301 301 301 302 305 309 314 317 318 319 321 318 315 319 321 324 327 328 324 320 320 317 314 315 316 315 315 316 316 315 315 316 316 316 315 315 315 314 316 315 316 321 323 321 321 318 317 319 317 317 316 314 315 315 314 315 319 321 319 317 322 326 324 322 320 322 329 330 323 320 320 323 325 329 334 329 326 329 325 324 325 323 324 323 324 327 326
301 301 301 301 302 302 305 310 313 316 319 320 319 320 323 323 324 326 326 321 321 321 316 315 316 314 315 315 315 316 315 315 316 316 315 314 317 318 316 317 317 316 319 320 321 323 321 319 317 316 316 315 314 314 314 315 316 317 317 315 315 321 328 329 326 324 328 333 330 322 322 323 327 331 329 329 326 325 328 325 325 326 324 323 321 322 324 324
301 301 301 302 302 301 304 306 307 314 319 318 321 324 324 324 326 326 324 320 320 318 313 315 315 314 316 314 314 315 314 315 315 315 316 315 317 318 316 316 317 317 319 320 320 322 326 327 320 317 318 315 314 315 314 314 314 316 315 316 319 321 324 326 326 326 329 333 330 324 324 326 328 334 328 323 323 324 326 325 325 326 324 323 323 325 326 326
301 301 302 303 304 303 303 304 305 311 316 319 322 322 321 324 325 323 320 318 316 315 314 315 314 314 315 314 315 315 313 315 315 314 316 315 317 319 316 315 316 317 319 318 318 318 322 328 324 318 319 317 314 315 316 314 313 316 315 317 322 322 323 325 327 329 330 330 328 324 326 328 330 336 332 322 321 322 322 325 325 324 322 323 325 327 329 329
301 302 301 305 310 309 304 304 304 307 315 322 320 317 318 322 323 320 319 317 315 315 313 313 314 314 314 314 315 314 314 314 314 314 316 316 317 320 319 318 317 317 318 320 320 316 315 320 322 318 317 315 315 314 315 313 314 318 317 315 319 321 323 324 326 331 328 324 327 326 326 329 332 335 330 321 321 322 321 324 324 323 322 323 326 327 329 330
302 302 302 304 309 311 310 309 305 307 318 324 320 319 320 319 318 318 317 315 314 313 311 313 314 312 313 314 314 314 313 314 314 315 316 315 316 317 317 317 316 315 320 323 321 315 314 318 319 315 315 315 315 315 314 312 314 318 314 314 319 321 323 323 323 324 320 321 327 322 320 324 324 327 327 322 322 320 320 322 322 323 324 324 326 327 329 330
304 306 308 307 307 311 316 315 310 313 321 323 321 322 319 314 314 314 314 314 314 312 311 315 315 311 312 314 314 313 312 313 314 314 315 315 316 316 313 315 316 314 318 322 321 315 315 320 320 313 313 315 314 315 315 313 314 314 312 314 317 316 320 322 320 319 318 321 324 319 320 321 319 326 329 322 319 319 318 321 323 325 326 326 328 329 329 330
307 309 312 310 305 308 316 317 315 318 322 322 323 322 316 313 314 312 312 314 312 311 312 315 314 311 312 313 313 313 312 313 313 312 313 313 316 317 313 313 316 314 314 317 319 318 315 318 322 315 312 315 313 313 315 315 314 314 313 313 315 317 320 318 318 320 321 321 322 321 321 319 320 328 330 322 320 320 320 321 323 325 326 328 329 329 330 330
311 314 316 312 305 306 311 315 317 317 320 322 322 321 316 313 313 312 312 312 311 311 312 312 312 312 312 312 312 312 311 313 313 312 313 314 317 320 315 313 315 315 315 314 317 319 315 317 322 319 313 313 313 314 316 317 316 316 315 312 313 315 316 317 320 322 322 322 323 323 322 323 326 327 325 323 323 324 325 324 323 324 325 327 328 328 329 330
313 316 318 316 313 311 310 314 317 317 318 321 320 318 314 312 312 312 312 311 311 312 313 313 312 312 313 311 312 312 312 313 311 312 315 315 318 319 315 313 313 313 314 314 314 317 317 318 323 323 315 312 314 315 317 316 316 316 316 314 315 317 317 321 321 318 318 321 323 323 321 327 333 328 323 324 324 326 329 326 324 323 324 325 326 327 328 328
312 314 315 315 315 314 314 316 317 317 315 316 316 314 313 312 312 311 311 311 312 313 313 313 312 312 311 311 312 312 312 313 312 311 313 312 315 318 315 312 313 312 314 315 315 318 319 318 321 323 318 314 314 312 312 313 314 316 315 313 321 328 329 329 327 323 324 323 323 325 324 329 336 330 325 325 323 324 327 326 324 322 322 324 324 324 326 327
314 316 315 314 315 315 317 318 317 315 314 313 313 312 312 313 311 310 310 310 313 314 313 312 312 312 310 311 312 311 312 313 312 312 312 311 312 314 313 312 311 311 313 315 316 319 321 317 316 320 317 313 312 311 311 312 311 314 316 315 321 328 330 331 329 329 331 325 322 326 326 330 337 332 327 326 322 321 324 324 323 321 321 322 322 323 324 325
315 315 314 314 315 314 318 319 317 315 314 313 311 310 312 312 311 310 310 310 312 313 313 312 311 311 311 312 312 311 312 314 313 311 312 312 311 312 312 312 312 310 312 317 318 318 320 317 314 316 316 314 313 311 311 311 309 312 316 316 315 318 323 326 323 326 329 323 321 323 320 325 335 333 327 325 322 322 323 322 321 322 322 322 321 323 323 323
311 312 314 313 314 314 317 318 318 317 315 312 312 312 311 311 310 310 310 311 312 311 312 312 311 312 312 311 312 311 313 315 314 312 313 313 312 312 312 312 312 312 313 318 321 320 320 318 316 317 317 319 321 317 316 317 314 313 316 317 316 316 320 320 318 325 327 319 318 322 320 324 332 330 324 321 322 323 323 321 321 322 322 322 322 323 323 323
312 314 316 314 313 315 316 316 316 316 315 312 313 313 311 311 311 311 310 311 311 311 311 311 310 311 311 311 313 312 311 313 314 313 312 312 313 312 311 311 312 314 316 319 320 319 318 319 319 318 317 321 323 319 316 315 314 314 315 317 316 315 317 317 318 327 328 319 318 321 320 324 328 323 321 322 323 325 325 324 323 323 322 321 321 323 324 324
314 316 316 314 314 314 315 314 312 313 313 312 313 314 312 312 312 311 310 311 310 310 311 310 309 311 311 312 313 313 312 312 312 312 312 312 312 311 311 312 313 314 317 318 319 318 317 317 317 316 317 320 319 314 311 310 312 313 313 316 316 315 318 317 319 326 325 319 320 321 323 324 320 318 321 322 322 326 328 327 326 327 327 324 322 324 323 323
314 315 313 312 314 315 315 313 311 311 313 313 314 314 313 313 312 312 312 311 311 310 310 310 309 311 312 312 314 313 312 311 311 313 316 315 314 312 310 311 314 317 316 314 318 318 314 316 318 315 314 315 312 309 310 310 311 312 312 315 316 317 320 317 316 323 323 321 322 322 321 320 315 315 319 319 319 322 323 323 323 325 326 324 323 323 322 322
310 312 311 310 313 316 315 312 310 310 311 312 314 313 314 314 314 313 312 310 310 310 312 313 312 310 311 311 313 313 313 315 317 317 319 319 317 316 314 311 311 316 315 313 315 316 313 316 318 313 312 314 311 310 312 311 312 312 313 315 316 317 319 316 315 319 319 322 326 323 317 316 316 315 316 317 318 318 318 319 319 319 321 321 320 321 320 320
307 309 309 309 310 313 314 311 309 311 312 312 314 312 313 314 314 313 311 312 313 311 311 313 311 310 310 311 312 314 316 320 321 318 317 318 318 318 318 316 313 314 313 311 313 318 317 317 316 313 314 315 312 312 312 311 312 313 313 315 316 316 318 315 316 318 316 318 324 322 318 318 316 314 314 316 318 316 316 317 316 316 318 318 318 320 318 318
304 306 308 309 309 311 312 310 310 312 312 313 313 311 310 312 313 311 309 311 313 312 310 311 310 309 309 310 311 311 312 315 317 316 315 316 317 317 316 317 316 314 313 311 314 318 318 316 314 314 317 317 315 313 313 312 314 314 314 316 316 316 317 316 316 317 315 317 320 319 319 320 317 314 313 314 315 314 313 315 316 316 316 316 316 318 318 318
301 304 306 308 310 312 311 309 310 311 311 311 311 311 309 309 309 309 308 308 310 310 309 309 310 310 309 308 308 309 309 310 312 311 311 312 313 312 312 313 313 313 314 313 315 316 316 315 314 314 317 319 315 314 315 315 315 314 316 318 317 316 317 316 315 314 313 315 317 317 319 321 317 314 313 313 313 313 312 313 313 313 315 315 314 315 316 317
300 302 304 307 311 312 310 308 308 310 311 309 309 308 307 307 306 308 310 309 307 308 308 308 310 311 309 308 307 307 307 307 307 308 308 308 308 308 309 309 309 310 311 312 315 316 315 316 316 316 317 316 313 314 316 314 314 318 322 318 314 314 316 316 316 316 314 314 314 314 316 317 314 313 315 314 314 313 312 310 310 311 313 312 312 312 313 315
Wind_Speed
10 10 10 10 10 10 10 10 10 10 10 10 10 10 10 10 10 10 10 10 10 11 11 11 11 11 11 12 12 13 15 15 13 10 11 14 11 8 8 9 6 3 6 9 11 8 7 9 12 15 12 8 4 3 6 5 4 3 3 4 5 5 5 7 7 8 5 2 3 3 5 4 4 5 4 3 3 1 2 8 8 9 8 10 19 31 34 28
11 11 10 10 10 10 10 10 10 10 10 10 10 10 10 10 11 10 11 11 10 11 11 11 11 11 11 11 11 11 14 15 13 14 17 15 12 11 14 15 11 7 8 11 12 11 8 7 11 12 7 3 3 4 4 3 4 4 3 4 5 5 6 9 11 12 7 5 4 3 6 4 3 4 3 3 4 5 4 7 8 12 12 15 23 29 30 29
11 11 11 10 10 10 10 10 10 10 10 10 10 10 10 10 10 10 11 10 11 10 10 11 11 11 10 10 10 10 13 12 9 12 13 10 14 15 16 17 14 10 11 13 13 13 13 12 11 10 5 4 4 4 5 4 4 5 4 4 4 5 8 11 12 12 8 5 5 6 8 5 4 3 1 2 6 7 2 5 7 10 13 15 17 20 25 26
12 12 11 11 11 11 10 10 9 10 10 9 10 10 10 10 10 10 10 10 11 10 11 10 10 10 9 9 9 9 9 7 3 6 5 5 12 13 15 17 14 12 13 13 13 14 17 17 13 8 5 5 5 6 6 5 4 4 5 6 6 6 9 12 11 9 6 6 6 6 8 5 5 5 0 2 3 5 3 7 11 12 14 16 14 14 17 19
12 12 12 11 11 11 11 10 10 10 10 10 10 10 10 10 10 10 10 10 10 10 10 10 10 9 8 8 7 7 6 2 2 4 3 6 9 11 15 15 13 12 12 11 11 13 17 16 12 8 4 4 4 4 6 7 6 4 5 8 9 9 9 11 11 6 3 5 5 4 5 4 4 6 1 3 2 4 2 8 14 14 14 14 14 11 12 15
12 12 12 12 11 11 11 10 10 10 10 10 10 10 10 10 10 10 10 10 10 10 10 9 9 7 8 8 6 5 2 1 4 4 4 7 9 10 12 11 11 11 9 8 9 11 12 11 9 5 3 3 5 5 7 8 7 5 6 7 9 10 10 9 10 8 3 3 3 2 3 4 4 5 2 1 3 1 7 12 16 14 12 12 12 10 9 12
12 12 12 12 11 11 11 11 11 10 11 10 10 11 10 10 10 10 10 10 10 10 9 8 7 7 8 7 2 2 1 5 9 4 5 7 8 8 9 10 11 11 8 8 9 9 9 10 7 3 4 4 5 7 10 10 8 7 6 7 10 10 10 9 9 9 5 4 4 3 4 6 6 6 2 3 3 8 15 16 17 15 13 12 11 9 8 9
13 13 12 12 11 11 12 11 11 11 11 11 11 11 11 10 10 10 10 9 9 9 8 7 6 6 8 7 1 1 2 7 8 5 6 7 7 7 9 11 11 11 10 10 11 9 9 10 7 4 5 5 7 8 9 10 8 9 9 8 8 7 9 9 8 10 7 3 3 5 5 6 8 6 3 6 3 15 16 16 18 15 13 12 11 10 9 8
13 13 12 12 11 11 12 12 12 11 12 12 13 12 12 11 11 10 10 9 9 8 8 6 5 5 6 5 2 2 3 6 5 3 4 6 6 9 11 11 12 11 9 13 15 13 10 7 7 6 7 7 8 8 7 6 5 8 8 5 5 6 8 10 10 9 6 3 2 4 5 6 9 5 4 6 6 16 15 16 17 15 13 11 10 10 9 9
14 13 12 12 11 11 11 11 12 12 13 13 13 13 13 12 11 11 9 9 8 7 7 5 5 5 5 4 2 2 3 4 3 2 5 6 7 12 12 10 12 12 10 14 15 15 11 8 7 5 6 6 5 7 7 6 5 6 4 2 4 5 7 9 9 6 4 5 6 6 6 7 8 4 5 5 11 17 15 15 14 13 12 10 9 8 8 8
14 13 12 12 11 11 11 11 12 13 14 14 14 13 14 13 12 10 9 9 8 7 5 3 4 5 4 4 2 2 5 3 5 5 7 6 7 12 12 10 13 15 13 13 16 18 14 12 9 2 2 4 5 6 6 6 6 8 6 3 6 7 7 8 8 7 4 5 6 7 6 9 8 6 7 4 14 16 15 14 12 12 10 10 11 8 7 6
14 13 12 11 11 11 11 12 12 13 14 14 14 14 15 15 13 11 10 8 7 5 3 3 3 4 4 3 5 7 7 4 7 10 9 7 7 9 10 12 13 17 17 12 14 17 14 13 9 4 3 4 5 5 5 9 7 7 8 4 6 7 8 10 7 8 6 5 5 5 4 8 7 7 10 9 16 15 15 13 11 11 9 10 10 7 6 5
14 13 11 10 11 11 11 11 12 13 14 14 14 15 15 15 14 12 10 8 5 4 3 2 2 2 3 2 8 9 7 6 7 10 9 8 8 8 9 13 14 17 20 14 13 14 14 13 5 4 5 5 5 4 7 12 6 5 6 3 5 5 8 10 8 10 9 8 7 5 3 7 8 11 8 11 18 17 14 11 10 9 9 9 8 7 6 6
14 12 11 10 10 10 11 11 12 13 14 15 15 16 15 15 14 12 10 8 5 3 1 1 1 2 1 4 12 11 7 7 7 8 9 10 11 12 12 14 14 14 14 15 16 16 16 10 3 3 5 4 5 6 8 8 5 4 4 3 3 3 8 8 8 12 11 10 8 8 3 7 9 11 6 14 18 17 14 11 10 9 8 8 7 7 5 5
14 12 11 10 10 9 10 11 12 13 13 15 16 16 15 14 13 10 9 7 4 2 1 2 2 1 2 6 14 12 10 8 7 9 10 13 13 13 14 14 12 11 11 14 15 16 15 8 3 2 3 5 6 6 5 4 3 3 3 5 4 5 8 9 10 14 12 7 9 10 3 6 8 8 7 13 16 17 14 10 10 9 9 9 7 8 6 5
15 12 10 9 9 9 10 11 11 12 13 15 16 17 15 13 11 9 8 6 3 2 0 2 4 5 2 3 7 6 10 9 9 12 13 16 16 13 14 13 10 11 14 14 12 13 12 4 1 3 4 5 5 4 4 4 5 3 5 5 5 6 8 8 8 12 12 5 10 9 4 3 6 2 8 10 15 17 13 12 12 11 10 9 7 7 7 7
16 13 11 9 9 9 10 10 11 12 13 15 16 16 13 11 9 7 7 3 1 2 3 4 3 4 3 5 6 4 9 10 12 15 15 16 18 15 13 9 8 11 13 12 11 10 6 2 2 3 3 4 4 4 4 5 4 3 4 5 5 6 5 4 2 7 11 6 8 8 6 3 5 2 8 9 15 15 12 13 12 11 10 8 7 7 8 8
19 14 11 10 9 9 10 11 11 12 14 14 15 14 12 11 9 7 4 1 1 1 5 8 4 1 4 8 7 6 11 14 14 14 16 15 15 14 12 9 6 8 7 6 8 6 2 2 2 2 3 3 4 4 4 5 3 4 4 3 5 6 5 6 5 6 9 8 7 6 6 6 6 5 7 9 14 14 12 11 10 9 10 8 7 7 7 8
23 16 11 10 9 10 10 11 12 13 14 15 14 13 12 9 6 4 1 2 2 0 2 4 4 2 3 7 11 13 11 15 14 11 14 14 12 12 10 7 5 5 5 3 5 5 3 1 1 3 4 4 5 5 5 4 1 4 6 3 5 6 6 4 7 5 6 7 5 5 5 6 6 7 7 7 11 15 12 10 10 8 8 8 8 7 7 8
26 18 13 10 10 10 11 11 12 14 15 14 12 9 7 5 2 1 2 4 5 7 7 6 7 6 8 8 7 10 8 13 10 8 13 13 10 7 6 4 4 5 4 3 4 4 4 3 4 6 7 7 7 5 2 3 2 4 6 5 7 7 7 2 6 2 5 6 2 2 4 5 4 6 5 5 9 15 15 12 11 10 9 9 9 9 9 8
27 22 15 11 10 11 11 12 13 14 15 13 9 4 3 4 3 2 2 5 9 13 13 13 11 12 14 14 6 8 8 6 5 7 14 13 9 5 3 4 4 4 5 6 5 3 4 5 6 9 9 8 7 5 4 4 6 5 5 5 7 6 6 5 6 4 7 6 2 4 4 5 5 5 3 3 8 11 15 14 13 13 11 10 11 11 10 8
27 25 18 12 10 10 10 12 13 15 16 12 5 1 4 9 7 7 4 4 8 12 14 16 16 14 16 23 19 11 6 5 6 7 12 13 7 5 4 6 5 5 5 6 4 3 4 6 9 11 10 8 5 2 6 4 5 5 4 5 6 5 4 6 4 5 6 4 3 6 6 6 7 8 7 1 7 9 14 15 14 14 12 10 11 11 10 9
26 26 22 13 10 11 10 12 13 16 17 11 6 6 8 15 12 12 8 3 7 10 11 12 14 13 13 18 16 11 5 5 6 8 13 13 6 6 5 5 7 7 6 6 5 4 4 7 11 10 6 5 3 2 6 6 4 2 2 2 5 6 3 3 5 4 4 3 2 5 6 6 6 8 8 4 3 7 12 15 14 13 13 13 13 13 12 12
25 25 24 16 11 10 11 14 15 16 17 13 13 14 13 16 11 11 6 3 5 8 10 12 12 12 13 13 8 7 5 5 6 7 16 14 6 6 6 6 6 6 6 9 10 8 7 7 6 4 5 4 0 3 5 4 3 4 3 3 5 8 5 1 2 3 5 4 2 4 6 6 5 5 6 6 2 7 9 11 11 10 12 13 12 12 11 12
24 24 24 19 13 10 13 15 12 13 14 11 16 19 14 11 7 10 5 2 4 5 8 10 8 9 14 14 9 7 6 6 7 7 15 16 9 6 5 6 5 6 9 10 9 9 9 7 6 6 4 1 1 1 1 2 1 4 4 5 5 7 9 4 2 2 5 5 3 4 3 5 5 4 7 6 1 5 6 8 9 7 10 11 11 10 8 9
24 23 23 21 15 11 12 8 7 13 13 10 14 15 7 4 8 9 4 1 4 4 5 4 4 7 11 10 7 6 5 6 9 10 13 17 13 6 4 4 3 6 9 6 3 3 4 3 4 6 4 3 3 2 3 3 2 3 4 3 2 5 7 6 4 3 3 2 4 5 5 3 6 6 7 6 3 6 5 7 7 6 10 11 9 9 9 9
23 22 22 21 17 12 7 5 10 14 8 10 15 14 11 12 12 7 3 1 4 4 4 1 1 5 7 7 8 5 2 5 7 10 13 16 12 4 4 5 3 5 5 0 1 2 1 3 3 4 4 2 1 2 5 5 3 3 5 3 4 5 6 7 5 3 2 3 3 2 5 2 4 6 7 7 5 5 3 6 6 7 12 13 11 11 12 12
22 22 21 19 18 14 10 11 14 11 7 12 17 15 14 16 10 4 4 1 3 2 3 0 1 4 3 7 9 5 5 5 3 4 13 18 11 4 4 8 5 7 6 0 3 4 3 5 4 4 4 2 2 5 7 5 4 4 5 4 1 2 4 7 5 3 2 1 4 4 2 2 4 6 7 8 6 3 5 6 4 4 10 14 13 13 12 10
22 22 21 19 18 14 12 13 11 9 12 16 16 14 15 14 6 3 3 1 2 1 1 1 2 3 2 4 8 6 7 4 2 3 8 12 9 3 4 6 5 8 8 2 5 5 4 5 6 6 4 3 4 6 7 5 5 3 1 1 1 2 3 5 4 4 3 2 4 6 2 2 3 6 4 4 4 3 4 4 3 5 7 12 10 8 8 7
23 21 20 21 17 11 11 12 13 10 15 16 15 16 13 7 3 3 1 1 2 2 1 1 1 3 5 5 6 7 8 5 4 5 4 4 5 4 1 3 3 5 6 4 3 4 3 3 5 3 3 4 2 5 5 4 4 3 4 2 4 3 3 3 3 2 2 2 5 5 3 2 3 5 2 1 2 3 3 5 6 8 10 11 7 8 9 7
24 21 20 21 18 11 7 9 11 10 14 14 16 15 9 3 2 2 1 2 3 3 1 2 4 6 8 6 5 6 8 7 5 6 4 2 3 4 1 3 3 3 4 5 5 5 4 2 1 2 3 4 1 4 6 6 3 3 4 2 3 4 3 2 3 2 1 4 5 3 5 1 2 4 4 4 2 6 7 7 8 9 10 9 6 7 7 6
25 22 19 19 19 16 11 12 12 10 14 16 15 9 3 2 0 3 2 3 4 3 2 2 5 8 9 8 6 7 7 6 5 5 4 5 4 4 4 3 3 1 4 4 4 5 5 3 3 3 3 4 3 1 5 7 3 3 3 2 1 2 3 3 3 1 1 4 4 3 6 2 4 4 4 5 2 6 8 7 8 8 8 10 12 11 9 8
25 23 21 18 18 20 19 18 17 11 12 16 10 3 1 1 2 4 3 3 2 3 2 3 5 7 9 9 7 8 8 6 6 6 4 6 6 5 7 8 6 4 2 3 2 3 4 6 7 5 2 4 5 2 1 4 2 3 4 3 3 2 2 1 3 1 1 4 4 2 4 3 3 3 5 7 2 5 9 8 7 8 8 11 13 13 11 9
25 23 20 17 17 21 21 18 16 13 12 12 5 1 0 2 3 4 5 5 5 7 5 3 7 9 7 7 6 7 6 5 7 7 4 5 3 3 6 7 6 4 4 2 1 1 2 5 5 4 2 3 5 4 5 3 3 3 4 4 5 4 3 3 2 2 2 4 4 4 3 1 2 3 8 6 4 7 9 8 7 9 11 12 12 12 11 10
25 21 18 17 17 19 19 17 15 12 9 5 2 0 2 3 3 3 4 5 6 9 7 4 5 7 5 5 6 8 6 6 8 6 4 5 4 3 4 5 6 4 3 2 1 1 3 4 5 7 5 5 5 5 6 3 4 4 1 2 3 4 5 3 3 5 4 1 2 1 1 3 2 3 9 4 6 8 7 8 8 9 11 12 11 10 10 8
24 21 16 15 17 18 16 15 13 11 7 1 1 3 4 3 5 4 4 6 6 6 7 3 2 4 4 3 5 7 6 5 7 5 2 4 5 6 6 5 5 6 4 4 2 1 2 5 5 5 6 6 5 5 3 2 1 2 2 0 4 4 6 4 2 3 2 1 2 3 2 2 1 1 7 3 4 7 7 8 10 10 11 11 9 8 8 8
24 19 12 13 18 18 15 12 12 12 7 3 3 4 4 4 7 7 7 10 10 8 5 2 2 3 3 2 3 5 5 4 4 4 2 3 4 5 7 6 6 6 5 5 2 1 1 4 6 5 5 3 4 6 6 1 4 2 2 4 3 2 4 4 1 1 1 1 2 3 3 0 1 1 5 4 2 6 7 9 11 11 11 10 8 8 8 8
21 14 10 17 21 20 17 14 15 13 6 2 4 4 4 6 8 9 10 11 12 10 4 1 1 2 3 3 4 3 3 4 3 3 2 3 3 2 2 2 3 3 3 6 2 1 3 1 6 5 6 4 2 4 6 2 3 3 4 5 2 2 1 1 1 2 1 1 2 3 2 1 0 3 5 5 2 3 6 9 11 11 11 10 8 9 9 8
13 5 5 14 17 16 18 18 14 7 3 3 4 3 4 7 9 12 13 12 11 9 4 2 2 2 2 3 4 5 3 2 3 3 1 2 4 3 3 1 0 3 5 6 2 1 2 2 4 6 6 6 4 2 2 2 2 1 3 3 0 3 3 1 1 3 3 2 2 3 2 1 3 4 4 2 6 8 7 6 9 10 10 9 8 8 8 7
7 1 5 12 11 11 17 15 8 2 2 4 4 4 5 7 9 11 12 12 8 4 2 2 4 4 4 5 6 5 3 2 2 1 2 3 3 3 2 2 2 2 5 6 3 1 2 2 2 5 7 7 4 3 2 2 1 2 3 2 1 1 2 2 1 1 2 2 2 1 2 4 4 2 4 2 8 9 8 6 6 9 10 9 8 8 7 7
4 2 5 4 8 19 18 9 3 2 3 4 4 6 8 8 9 10 12 12 5 2 3 5 5 4 4 5 7 6 2 2 2 1 2 3 3 1 2 2 1 2 5 5 3 2 2 2 1 3 5 3 5 7 6 3 1 2 0 0 2 2 3 3 3 3 2 1 1 2 1 5 5 3 4 2 6 9 8 5 5 8 11 10 8 8 7 7
2 2 5 4 16 18 11 3 3 3 3 4 5 7 8 8 9 10 11 10 3 1 1 3 4 5 4 3 3 5 4 3 2 2 3 3 5 5 3 5 6 5 5 5 3 2 1 3 2 1 3 4 8 11 12 10 5 1 2 2 3 3 5 4 1 2 1 1 1 2 2 4 6 4 3 5 6 7 8 8 7 8 9 9 8 8 8 7
2 5 10 3 9 9 5 1 4 2 3 5 7 10 10 8 8 9 8 5 2 1 3 3 3 4 3 1 1 4 4 3 4 4 3 4 6 6 6 7 8 7 5 3 2 2 2 2 1 2 4 5 8 10 10 10 8 4 1 3 3 2 4 5 4 3 1 2 2 2 1 3 5 5 2 4 6 8 7 7 8 8 7 8 8 7 7 7
3 4 8 7 7 6 3 3 4 3 4 5 7 9 9 8 9 10 8 4 1 2 4 4 3 2 2 3 3 4 4 2 3 5 4 3 2 4 8 8 7 6 3 2 1 1 1 1 2 1 3 5 6 6 7 7 6 3 3 3 3 2 4 3 1 2 2 1 3 4 1 4 4 4 2 2 5 8 9 6 7 8 6 7 7 6 7 7
4 2 3 5 6 4 2 3 4 4 5 5 5 6 6 7 8 8 8 5 1 3 4 6 6 4 5 6 4 4 4 3 2 3 4 3 1 1 5 9 8 6 3 4 6 3 1 1 3 4 2 1 2 1 2 5 5 3 5 6 5 4 5 2 1 3 1 2 2 4 2 4 3 5 5 4 6 7 6 6 6 6 3 4 7 6 5 6
3 2 3 4 2 1 2 3 3 3 5 4 4 5 5 5 7 7 6 4 4 6 4 7 6 5 6 7 5 4 5 5 5 4 4 4 2 2 2 8 10 8 6 7 8 5 1 1 2 3 5 5 4 4 3 5 4 4 6 7 6 6 5 3 3 1 3 1 3 2 5 2 1 3 5 6 6 5 4 5 6 6 4 3 3 6 5 6
2 1 4 4 4 4 3 4 5 3 4 3 2 4 5 6 6 4 4 5 6 7 5 6 7 5 5 8 5 3 4 5 6 6 5 5 6 6 4 8 10 8 8 8 6 5 3 1 2 2 3 3 4 7 8 8 6 6 6 6 7 7 7 6 1 4 3 4 2 2 5 3 2 2 4 4 5 3 4 7 7 8 6 4 3 6 6 7
3 1 3 4 3 4 4 5 6 6 7 5 4 5 6 7 7 5 3 3 6 7 5 6 9 7 8 11 7 4 3 3 4 6 6 6 6 7 6 6 7 6 6 5 3 4 4 1 3 3 4 5 5 6 8 7 7 7 6 6 6 7 8 6 2 4 1 3 5 3 5 2 3 2 4 3 5 5 5 8 8 9 10 9 8 7 7 8
4 2 4 5 3 5 5 7 7 6 7 7 5 6 6 6 7 6 4 4 5 7 6 5 10 12 13 12 8 5 6 4 4 4 4 5 5 4 4 4 3 2 4 3 1 3 4 2 2 1 3 5 5 6 8 8 7 7 7 5 5 6 7 6 4 3 2 1 3 2 5 0 2 3 5 2 4 5 4 3 3 4 4 7 8 8 9 9
4 2 4 5 4 5 6 7 7 4 7 9 6 6 7 6 6 6 5 6 4 5 7 7 8 11 12 12 10 7 7 7 5 4 5 5 5 4 3 2 3 5 4 2 1 3 3 1 1 4 4 4 5 5 7 8 6 6 7 6 7 7 7 6 4 4 4 3 2 6 6 3 3 3 6 6 7 9 9 7 5 2 1 1 2 4 7 8
9 6 6 4 4 6 5 5 5 4 6 6 4 6 7 8 10 8 6 9 10 8 8 8 8 8 9 12 11 7 9 9 7 7 6 4 4 3 3 3 4 5 4 1 2 3 2 0 2 5 3 3 4 5 7 6 6 7 7 6 6 6 4 2 2 2 4 4 6 8 4 4 3 6 8 8 9 10 10 9 8 5 3 4 5 3 4 4
15 10 9 4 3 5 4 3 6 5 4 5 5 7 8 9 12 11 5 7 11 11 9 10 10 7 6 10 9 7 9 10 9 9 7 5 5 5 4 6 6 4 3 1 2 2 3 3 1 3 2 2 3 6 7 6 7 6 5 3 3 3 1 2 2 3 5 4 5 5 4 3 3 7 7 7 8 9 8 7 8 7 7 8 9 8 6 5
Wind_Direction
319 317 315 313 312 311 308 307 305 304 304 304 303 304 302 300 298 296 297 296 300 301 303 305 303 306 307 311 316 323 328 322 317 298 256 248 241 232 246 255 272 243 223 252 258 251 259 245 229 238 245 249 235 220 258 260 255 252 212 215 239 243 249 256 256 263 267 336 335 27 26 32 43 41 36 16 57 304 41 78 72 63 70 101 112 120 125 127
318 315 313 311 311 309 308 307 305 304 305 304 304 305 302 301 300 298 299 298 300 301 305 307 306 308 307 314 324 335 333 320 304 276 258 252 239 235 241 248 261 245 223 241 243 233 237 235 219 221 225 233 224 206 216 224 230 232 212 202 223 232 244 256 261 272 298 344 329 25 31 33 62 46 31 359 359 349 36 90 88 89 92 98 114 123 125 127
317 315 313 311 312 308 306 306 307 306 305 306 306 306 305 304 304 303 303 303 303 305 307 308 309 310 312 321 333 345 331 314 293 263 265 248 222 225 236 244 245 239 239 241 238 233 241 253 237 214 201 220 224 216 213 201 212 220 219 231 241 242 254 259 266 284 307 352 7 26 15 16 45 35 66 28 4 342 1 121 112 114 124 122 125 129 129 129
318 317 314 311 311 308 307 306 305 305 304 304 304 306 307 307 307 306 307 308 307 307 306 308 311 312 321 333 342 349 325 307 276 248 263 212 206 211 224 235 239 243 247 243 243 248 261 277 273 240 209 217 221 229 232 211 211 209 199 222 246 252 265 268 275 302 338 21 29 19 357 355 5 351 4 85 13 304 277 153 149 144 140 135 129 129 130 128
319 317 315 311 310 308 307 306 305 306 305 304 306 307 306 306 307 307 309 310 309 307 308 311 313 319 332 340 350 348 330 328 249 229 188 173 192 203 218 232 239 238 240 242 246 254 265 275 276 262 232 233 228 231 241 222 215 227 218 219 234 245 257 273 282 300 22 34 13 359 333 323 343 321 278 122 196 252 257 142 143 141 139 134 128 131 132 130
318 317 314 311 310 308 308 308 307 308 308 308 308 308 308 307 304 305 308 308 310 310 312 310 316 337 339 337 354 349 346 255 288 244 171 167 183 202 216 222 221 220 224 233 243 257 267 263 259 258 239 245 241 243 254 236 208 222 248 230 232 243 251 273 286 289 336 12 316 297 306 318 339 305 274 146 248 168 100 114 121 123 124 116 113 123 128 135
318 316 313 312 310 308 309 308 308 308 310 311 309 310 310 308 305 305 307 308 310 311 310 311 328 351 341 345 8 334 219 262 286 254 183 181 187 206 208 203 201 201 205 218 236 247 259 257 243 234 242 239 239 245 254 251 225 219 241 236 237 248 259 272 280 288 328 5 324 341 347 326 314 303 321 315 312 100 102 104 111 114 113 107 106 117 120 129
317 316 314 311 308 307 308 307 307 308 310 313 313 313 312 311 309 304 305 305 305 311 313 322 351 358 351 2 4 268 242 248 255 212 187 190 190 194 186 186 190 189 194 214 235 243 255 255 229 220 244 235 237 240 245 255 245 229 230 231 240 257 273 281 282 286 304 339 331 320 315 292 281 292 310 301 46 104 112 109 114 118 118 120 121 126 125 125
318 316 314 309 307 306 306 307 308 308 310 312 315 316 315 316 314 307 306 304 303 308 314 336 359 357 1 355 310 314 269 219 203 170 169 183 180 170 169 175 185 184 198 224 236 245 255 252 226 221 232 241 251 254 261 268 253 235 230 227 234 249 272 282 277 272 282 288 251 258 259 254 269 288 285 267 115 113 119 114 116 119 120 124 126 129 126 124
320 316 313 309 306 304 303 305 307 309 310 313 316 316 316 317 315 312 307 303 305 305 313 342 350 357 0 310 264 323 265 187 140 124 156 172 164 162 169 175 183 184 211 235 238 243 246 246 250 245 240 254 270 274 278 272 272 273 266 271 268 257 257 267 273 263 259 260 218 209 237 246 249 238 261 247 133 123 117 113 114 114 115 115 112 116 118 117
324 318 313 309 305 303 303 305 307 309 310 311 315 316 316 318 317 315 308 303 305 304 314 341 351 10 347 298 244 255 256 188 138 136 145 156 166 170 174 180 191 196 212 236 242 244 247 257 276 317 266 310 322 288 275 277 294 297 299 318 299 291 278 275 288 286 280 269 210 189 227 250 242 209 232 200 127 125 118 115 116 114 117 115 111 109 107 105
327 319 311 305 303 300 302 307 308 309 311 312 316 318 319 321 323 321 312 305 302 307 334 347 14 29 343 298 232 239 256 237 150 137 145 161 185 189 184 184 196 211 221 239 249 252 261 271 301 353 294 322 318 292 302 306 306 282 287 311 293 289 279 270 270 272 270 267 227 189 242 265 258 227 218 165 128 125 119 118 119 118 119 114 113 109 106 108
330 323 312 305 302 300 302 306 307 309 311 313 315 316 317 321 324 322 315 308 298 307 333 338 36 25 333 267 244 250 263 253 171 147 160 174 197 207 213 210 210 226 237 255 275 285 282 268 296 338 293 310 303 306 312 304 303 263 268 279 284 295 269 249 232 240 236 237 219 166 243 267 259 251 220 143 129 126 121 124 123 121 117 109 107 107 110 114
334 329 321 313 304 299 301 301 305 308 309 312 312 312 317 322 322 320 316 307 295 299 323 345 62 60 310 248 276 279 256 238 187 172 181 185 206 212 221 231 237 248 254 268 281 297 298 285 311 316 290 290 277 298 303 297 305 285 281 264 245 258 263 240 213 224 220 227 194 150 220 250 261 263 196 135 133 129 127 131 126 124 114 107 109 113 115 112
341 335 327 323 314 305 302 301 304 305 307 311 309 313 321 322 318 316 315 310 296 282 304 316 216 158 312 277 291 280 227 222 202 198 198 194 211 218 217 225 240 256 259 263 270 289 299 304 329 299 268 265 256 272 285 284 280 241 243 276 230 204 258 249 216 209 211 222 155 141 230 250 268 259 163 135 133 128 130 134 129 127 118 116 123 121 126 122
346 342 335 329 322 314 308 305 305 306 309 309 309 318 323 318 311 308 315 310 284 252 254 316 211 192 305 283 295 270 205 216 221 211 203 199 211 217 209 210 220 233 245 251 256 278 286 275 253 251 257 270 262 260 276 289 291 238 203 246 238 218 249 253 223 190 195 194 134 153 212 247 282 232 127 120 129 133 135 140 141 135 125 127 131 128 134 132
351 346 341 334 326 319 314 310 309 308 307 306 312 320 319 317 308 304 322 316 241 231 236 288 238 187 269 276 297 281 197 207 223 212 201 206 221 215 189 188 215 220 231 239 238 251 258 201 197 240 255 258 256 260 272 269 278 289 241 243 258 250 233 216 230 186 183 160 141 185 206 214 278 149 124 123 133 139 138 142 145 132 124 130 130 137 141 140
357 348 343 340 331 325 320 314 314 310 307 311 318 320 316 314 301 296 332 74 121 321 272 283 289 188 260 257 248 236 203 201 215 209 198 208 231 230 196 182 210 210 211 236 237 229 208 195 193 238 279 260 251 236 228 242 262 309 295 273 284 281 243 179 189 204 178 149 151 193 222 232 245 192 153 140 137 138 138 137 134 124 125 134 136 145 146 143
1 351 344 342 335 329 326 320 318 314 311 317 322 320 314 307 296 285 254 159 133 38 278 235 196 176 261 242 222 232 218 189 195 200 197 204 221 245 237 207 213 211 200 218 228 209 183 225 229 246 268 254 241 214 215 242 281 323 318 305 301 306 290 176 155 180 152 140 166 184 221 235 225 209 189 162 143 137 135 127 123 130 131 140 145 148 153 153
3 357 345 340 338 332 328 324 321 316 316 323 333 333 321 318 348 2 203 213 214 225 254 228 197 229 272 280 225 205 179 162 180 201 197 201 201 226 249 220 229 233 217 213 223 211 171 188 232 229 235 232 219 182 191 317 19 350 335 329 325 327 317 11 107 109 82 104 196 241 251 258 252 242 225 175 141 133 138 137 138 147 147 153 157 156 161 162
2 358 346 336 335 331 328 325 319 315 315 321 333 339 299 295 319 1 196 222 227 224 244 247 230 235 249 270 252 159 142 156 199 211 193 193 199 204 195 195 236 253 231 229 241 229 174 198 231 231 234 228 209 149 92 12 17 10 351 340 328 326 322 1 72 64 54 78 286 321 341 307 311 316 312 132 124 134 146 145 147 157 159 162 159 161 167 163
1 359 349 333 329 329 325 319 312 310 311 312 315 250 257 279 298 351 355 265 255 237 239 245 246 246 242 254 246 194 169 188 199 222 190 176 185 196 179 181 210 244 234 230 244 222 196 232 242 237 237 225 217 107 78 51 27 12 356 352 319 304 327 344 18 51 58 69 312 341 1 322 319 339 333 112 122 138 150 150 158 162 163 165 160 165 167 154
360 358 352 338 323 323 318 313 309 304 301 291 259 234 268 287 310 358 358 292 282 263 246 237 237 245 246 252 238 193 197 206 198 218 183 170 183 189 195 199 203 226 228 217 216 196 200 239 238 229 211 199 222 31 53 44 20 338 316 342 294 290 333 341 328 4 46 75 33 5 355 318 324 345 323 289 130 134 150 156 164 167 166 167 164 167 165 155
357 358 354 343 322 316 316 311 305 299 296 285 265 262 278 292 319 14 12 266 277 268 253 241 232 231 235 248 231 182 216 222 219 210 172 173 196 176 202 237 222 234 230 213 206 205 226 229 207 155 121 144 185 35 54 50 348 301 239 213 258 283 298 290 285 343 21 12 24 39 2 318 319 330 296 296 56 126 146 149 160 173 171 165 159 163 162 154
354 355 354 347 330 312 317 311 301 310 312 284 270 278 284 291 337 25 18 272 275 261 238 236 236 221 219 228 220 199 216 218 236 220 165 172 197 180 202 229 221 243 247 237 217 207 233 226 154 108 87 96 92 83 109 141 294 310 261 220 231 274 290 294 291 34 44 347 294 104 49 301 302 304 275 289 21 160 163 149 167 172 157 156 152 150 145 144
348 351 353 350 337 315 321 314 305 329 318 275 284 303 319 353 9 20 24 289 288 258 205 190 191 200 204 205 199 199 228 232 231 217 169 175 200 200 208 229 214 234 244 254 253 209 232 235 120 104 67 34 49 4 285 215 186 286 259 251 294 308 307 308 325 17 96 255 253 138 126 273 302 314 283 276 265 230 195 151 168 147 129 145 148 141 141 146
344 345 348 348 341 325 316 295 313 330 306 281 320 349 18 12 3 17 55 13 294 231 189 156 144 183 186 183 175 159 224 251 228 206 168 173 200 194 206 254 273 248 253 87 353 283 136 78 74 98 87 63 66 290 260 209 178 235 237 255 326 345 336 319 330 345 206 232 287 152 140 190 286 293 281 285 287 253 179 135 153 140 134 145 150 154 159 162
339 340 341 343 340 324 292 284 309 319 282 299 331 350 356 353 358 34 74 45 295 215 164 144 151 166 175 190 184 180 244 260 261 192 155 166 190 160 191 247 272 278 288 168 221 254 149 136 154 136 100 97 200 242 246 219 198 224 219 218 248 15 332 322 340 327 276 310 318 301 171 175 260 268 274 293 292 231 137 122 122 121 144 156 161 162 161 155
334 335 334 333 332 324 304 287 281 292 310 323 334 336 335 339 1 56 70 109 284 306 115 87 126 169 200 208 195 211 252 250 225 210 148 162 194 168 185 243 278 298 299 242 210 223 196 180 165 135 124 178 221 243 249 249 229 194 160 278 6 48 297 307 310 298 343 13 273 270 240 184 271 273 276 309 280 206 146 123 70 49 125 155 157 142 134 132
329 330 329 326 326 333 332 296 267 298 337 341 336 334 333 332 27 71 64 240 275 292 115 77 45 185 195 214 199 200 235 243 202 197 150 154 205 179 182 277 284 300 310 307 269 242 223 156 138 131 159 185 251 274 272 276 251 132 88 356 347 327 274 261 260 265 32 315 254 248 259 244 278 282 265 294 230 167 103 85 70 67 108 142 156 146 147 151
323 323 321 317 311 311 323 283 267 322 351 345 337 338 340 343 83 124 200 281 275 268 186 174 195 192 195 215 213 188 218 244 220 188 169 166 196 167 153 313 284 294 328 329 315 298 314 41 147 234 194 180 245 293 298 299 289 80 79 44 3 332 328 8 336 21 102 267 262 311 340 321 244 274 258 241 181 122 108 107 103 97 106 115 119 124 124 114
319 318 311 304 297 286 264 249 268 319 340 336 339 344 358 19 237 202 228 313 286 254 267 224 202 198 190 202 228 203 198 230 234 215 187 166 179 182 179 203 211 323 326 302 312 321 321 318 289 281 214 185 171 278 309 307 301 102 96 75 56 339 0 15 324 335 199 252 256 321 358 348 230 244 265 273 226 130 118 122 118 110 102 91 87 89 89 87
317 315 304 293 286 275 262 261 274 293 317 327 338 3 64 81 240 229 233 289 266 222 275 307 276 242 194 187 225 217 195 197 207 221 215 180 180 186 185 198 195 165 217 259 342 356 328 328 317 305 263 180 156 150 266 301 305 153 163 158 142 128 70 300 273 275 271 275 277 337 28 332 287 268 299 313 284 124 104 110 117 102 87 83 86 90 90 84
316 315 306 294 280 268 263 266 268 268 291 315 343 35 343 218 245 262 263 270 264 254 237 221 285 282 227 198 215 212 205 202 196 201 206 192 189 182 186 211 217 184 177 213 22 99 285 320 298 275 279 166 167 177 182 217 272 219 192 155 147 151 149 192 210 171 227 269 306 9 61 254 272 267 286 316 70 89 86 96 98 83 80 84 87 88 88 82
317 315 309 296 277 265 260 260 257 252 270 313 31 97 220 225 249 250 260 258 253 271 269 201 237 275 260 240 231 213 204 206 208 205 191 196 207 195 185 210 225 211 150 166 254 221 233 259 226 222 223 184 197 218 186 201 270 266 317 85 164 184 154 159 187 182 188 242 311 325 195 226 206 247 278 302 78 81 89 94 80 74 83 90 89 88 93 92
320 319 311 287 270 263 257 254 245 229 222 190 94 232 213 230 258 244 268 274 262 298 326 336 263 258 240 247 256 232 201 183 200 197 187 212 208 196 194 190 197 197 158 150 221 217 206 252 255 248 236 191 198 250 221 156 240 284 332 264 219 182 130 126 242 214 152 75 274 230 214 296 339 271 278 271 110 104 108 93 80 82 85 90 90 88 96 95
327 324 309 277 264 258 253 246 220 202 189 164 196 230 233 244 255 258 280 294 296 309 330 5 4 313 282 267 271 236 180 158 194 192 194 231 230 228 218 194 167 179 167 137 172 218 146 265 290 313 295 236 193 262 281 156 110 87 282 264 289 33 92 112 121 322 83 144 257 223 181 258 358 280 290 295 151 134 123 101 91 92 88 87 89 87 90 88
324 316 294 271 256 240 235 225 202 186 167 189 224 240 257 255 261 274 284 291 300 311 327 81 182 248 276 272 285 277 168 147 177 197 203 211 229 320 322 212 155 144 101 91 99 306 75 332 297 315 312 290 199 253 286 319 96 140 235 265 352 67 42 357 125 167 197 189 277 274 184 130 186 254 297 325 7 72 92 100 99 97 94 93 90 87 86 81
313 304 282 276 266 242 222 204 190 175 155 213 233 236 249 256 257 265 270 272 281 289 290 280 260 259 274 264 286 295 259 206 188 184 192 238 255 311 358 328 98 66 61 74 91 279 91 110 282 299 322 343 350 286 259 316 337 274 255 281 245 149 159 213 171 163 165 181 246 302 347 334 217 238 293 6 64 44 31 72 100 103 99 96 94 87 85 86
307 264 272 293 284 220 190 170 155 139 197 214 231 243 253 264 261 258 265 269 268 264 266 320 335 335 323 327 329 305 258 247 273 196 182 210 241 280 275 225 221 155 116 111 110 15 39 89 248 297 334 3 341 272 189 176 264 348 351 333 295 25 63 50 348 36 119 161 194 94 347 283 246 277 326 36 101 78 44 40 84 103 98 91 93 92 89 90
304 278 277 334 123 151 147 127 129 179 206 234 238 247 256 263 269 274 279 284 291 39 15 327 315 312 311 332 334 320 334 3 317 290 223 203 153 159 278 264 225 176 122 102 77 33 41 91 152 304 333 336 282 297 327 334 153 126 312 209 138 102 77 64 354 342 45 113 164 140 193 264 261 294 330 10 116 112 102 84 79 98 100 97 98 99 103 106
258 284 280 104 124 137 124 105 221 187 198 237 232 246 256 257 265 270 274 283 289 114 272 276 277 286 282 275 298 314 335 345 328 335 330 359 75 89 22 18 48 66 78 88 82 43 84 106 98 283 269 272 287 305 317 316 313 225 176 141 111 114 110 112 183 292 320 249 209 169 194 262 271 288 356 42 84 106 119 124 116 106 103 106 107 104 105 111
236 301 299 275 151 142 113 186 262 259 227 235 239 248 253 254 260 261 263 279 299 254 250 238 242 260 268 271 323 337 349 359 353 345 348 24 63 92 73 38 40 48 44 61 63 355 13 87 82 295 285 298 307 305 304 312 326 323 225 126 115 160 141 143 177 171 166 220 190 153 214 273 282 293 354 69 83 87 93 109 116 112 108 107 108 111 111 111
286 278 295 279 209 171 142 206 249 262 250 248 247 252 260 264 262 258 257 252 261 323 314 301 290 279 355 14 2 348 359 8 355 347 351 18 53 94 89 78 60 52 40 27 53 261 318 89 108 36 345 335 330 325 325 335 352 344 319 17 57 67 70 59 13 69 73 245 144 121 210 255 268 293 319 85 85 90 96 99 102 106 113 116 112 112 116 115
312 255 270 266 229 197 184 208 212 238 268 277 275 286 294 287 280 280 280 257 227 31 0 318 329 8 5 354 341 335 343 326 325 347 342 337 334 106 116 118 102 91 87 49 57 95 157 124 114 122 148 256 282 300 348 338 346 352 334 349 15 15 20 31 38 66 75 297 53 103 189 267 302 341 353 33 66 76 80 73 73 71 65 110 122 122 120 114
319 297 332 321 298 348 298 284 292 264 271 288 297 300 299 295 299 313 335 351 14 26 358 305 333 19 5 352 356 351 342 329 335 1 353 343 345 323 147 125 107 100 98 70 62 71 66 37 82 148 179 192 225 257 308 336 332 319 322 337 351 351 2 40 63 113 169 171 347 159 156 173 327 29 14 28 65 87 97 91 86 71 22 350 111 125 124 114
347 345 11 352 318 346 354 336 344 325 299 317 349 331 326 322 320 339 31 36 16 17 4 334 355 26 360 349 350 335 321 319 336 358 9 10 358 346 28 89 92 87 84 78 86 95 73 1 297 263 242 244 269 295 317 323 310 299 308 322 322 331 6 39 11 248 170 111 299 248 105 83 245 150 89 64 66 73 123 139 140 137 160 219 183 144 142 132
8 348 12 10 315 323 347 340 336 335 336 357 24 355 347 352 350 358 23 18 12 28 33 354 353 9 14 10 3 338 325 325 350 2 10 19 5 343 4 63 89 92 83 76 95 109 109 209 257 272 290 300 308 317 323 318 310 312 316 320 326 341 6 18 297 261 88 118 218 223 81 52 266 61 65 94 92 76 114 146 161 156 162 181 175 160 163 156
6 335 339 4 339 301 308 320 322 330 353 12 20 353 356 15 3 345 351 0 4 25 45 27 0 4 19 32 39 22 3 4 10 7 1 5 4 348 355 25 46 55 78 88 59 71 103 189 262 4 351 338 344 341 333 323 315 312 315 340 18 16 4 357 328 313 27 98 213 134 73 11 244 62 34 19 73 64 65 105 141 144 160 185 181 175 176 163
354 318 335 342 326 311 306 322 330 351 20 25 22 355 353 6 356 340 5 30 27 14 28 40 20 9 21 42 53 39 9 4 7 1 2 6 2 356 2 358 330 343 15 69 47 47 78 188 14 54 29 342 336 326 312 307 311 322 325 344 5 355 344 348 341 352 20 1 347 46 50 327 292 45 41 27 41 40 25 18 25 51 83 187 203 208 199 168
344 319 335 315 300 323 318 333 8 47 37 18 6 358 355 358 6 9 19 38 44 27 17 36 35 23 32 39 38 18 352 350 347 338 341 352 339 318 322 325 332 350 357 12 45 64 99 209 20 58 46 312 315 325 316 323 352 355 335 330 332 319 307 297 286 349 15 353 7 24 13 276 308 35 45 38 41 46 37 25 18 16 40 50 31 346 263 205
354 335 343 319 267 313 318 5 37 51 32 360 355 8 4 359 16 26 17 23 32 20 16 45 47 31 38 34 13 343 336 335 326 317 317 319 310 303 303 308 318 331 320 336 54 106 125 111 82 86 91 285 316 340 342 1 12 340 292 281 301 290 300 357 347 26 36 52 63 27 301 258 41 54 61 49 43 49 47 37 26 15 22 33 30 21 345 312